Location: Praha
(50.0830°N, 14.4670°E)
Time: 06:08:36
(UTC+01:00)

ISS - Pass Details

Date: 24 February 2020
Orbit: 415 x 423 km, 51.6° (Epoch: 27 February)

Event Time Altitude Azimuth Distance (km) Brightness Sun altitude
Exits shadow 05:09:44 - 185° (S) 1,568 -1.0 -17.9°
Reaches altitude 10° 05:10:00 10° 182° (S) 1,495 -1.1 -17.9°
Maximum altitude 05:12:15 17° 140° (SE) 1,144 -1.2 -17.5°
Drops below altitude 10° 05:14:32 10° 97° (E) 1,504 0.3 -17.2°
Sets 05:17:08 0° 77° (ENE) 2,375 1.8 -16.7°
